Clinton-Sherman, OK

1:00 AM CDT on October 19, 2017 (GMT -0500)
Clinton-Sherman

Weather History for KCSM - December, 2013

Change the Weather History Date:

Friday, December 27, 2013

  Actual Average Record
Temperature  
Mean Temperature 42 °F -  
Max Temperature 55 °F 47 °F 68 °F (2005)
Min Temperature 30 °F 27 °F 15 °F (2012)
Degree Days  
Heating Degree Days 22    
Moisture  
Dew Point 29 °F    
Average Humidity 63    
Maximum Humidity 79    
Minimum Humidity 40    
Precipitation  
Precipitation 0.00 in - - ()
Sea Level Pressure  
Sea Level Pressure 30.34 in    
Wind  
Wind Speed 10 mph (SSW)    
Max Wind Speed 14 mph    
Max Gust Speed -    
Visibility 10 miles    
Events      
Averages and records for this station are not official NWS values.
T = Trace of Precipitation, MM = Missing Value Source: NWS Daily Summary

Daily Weather History Graph

Daily Weather History Graph

Search for Another Location

Airport or City:

Trip Planner

Search our weather history database for the weather conditions in past years. The results will help you decide how hot, cold, wet, or windy it might be!

Date:

Astronomy

Dec. 27, 2013 Rise Set
Actual Time 7:44 AM CST 5:31 PM CST
Civil Twilight 7:16 AM CST 6:00 PM CST
Nautical Twilight 6:44 AM CST 6:31 PM CST
Astronomical Twilight 6:13 AM CST 7:02 PM CST
Moon 2:24 AM CST (12/27) 1:37 PM CST (12/27)
Length of Visible Light 10h 43m
Length of Day
9h 47m
Waning Crescent, 28% of the Moon is Illuminated
Dec 27
Waning Crescent
Jan 1
New
Jan 7
First Quarter
Jan 15
Full
Jan 23
Last Quarter

Hourly Weather History & Observations

Time (CST) Temp. Windchill Dew Point Humidity Pressure Visibility Wind Dir Wind Speed Gust Speed Precip Events Conditions
12:53 AM 36.0 °F 27.5 °F 26.1 °F 67% 30.35 in 10.0 mi SW 12.7 mph - N/A   Clear
1:53 AM 35.1 °F 25.9 °F 25.0 °F 67% 30.35 in 10.0 mi SW 13.8 mph - N/A   Clear
2:53 AM 35.1 °F 26.9 °F 26.1 °F 70% 30.34 in 10.0 mi SW 11.5 mph - N/A   Clear
3:53 AM 34.0 °F 25.0 °F 25.0 °F 70% 30.35 in 10.0 mi SW 12.7 mph - N/A   Clear
4:53 AM 32.0 °F 24.2 °F 25.0 °F 75% 30.35 in 10.0 mi SW 9.2 mph - N/A   Clear
5:53 AM 30.9 °F 22.2 °F 24.1 °F 76% 30.37 in 10.0 mi WSW 10.4 mph - N/A   Clear
6:53 AM 30.9 °F 22.2 °F 24.1 °F 76% 30.37 in 10.0 mi West 10.4 mph - N/A   Clear
7:53 AM 30.0 °F 25.2 °F 24.1 °F 79% 30.38 in 10.0 mi SW 4.6 mph - N/A   Clear
8:53 AM 37.0 °F 34.5 °F 28.0 °F 70% 30.38 in 10.0 mi NW 3.5 mph - N/A   Clear
9:53 AM 44.1 °F - 28.9 °F 55% 30.40 in 10.0 mi Calm Calm - N/A   Clear
10:53 AM 48.0 °F - 30.9 °F 52% 30.40 in 10.0 mi Calm Calm - N/A   Clear
11:53 AM 51.1 °F - 30.9 °F 46% 30.38 in 10.0 mi SSW 3.5 mph - N/A   Clear
12:53 PM 53.1 °F - 30.9 °F 43% 30.35 in 10.0 mi South 9.2 mph - N/A   Clear
1:53 PM 55.0 °F - 33.1 °F 43% 30.33 in 10.0 mi South 12.7 mph - N/A   Clear
2:53 PM 55.9 °F - 33.1 °F 42% 30.31 in 10.0 mi South 13.8 mph - N/A   Clear
3:53 PM 55.0 °F - 30.9 °F 40% 30.32 in 10.0 mi SSW 11.5 mph - N/A   Clear
4:53 PM 51.1 °F - 33.1 °F 50% 30.32 in 10.0 mi South 11.5 mph - N/A   Clear
5:53 PM 43.0 °F 37.2 °F 33.1 °F 68% 30.33 in 10.0 mi South 10.4 mph - N/A   Clear
6:53 PM 41.0 °F 35.2 °F 33.1 °F 73% 30.33 in 10.0 mi South 9.2 mph - N/A   Clear
7:53 PM 37.9 °F 30.9 °F 32.0 °F 79% 30.33 in 10.0 mi South 10.4 mph - N/A   Clear
8:53 PM 37.9 °F 30.5 °F 30.9 °F 76% 30.31 in 10.0 mi South 11.5 mph - N/A   Clear
9:53 PM 39.0 °F 31.8 °F 28.9 °F 67% 30.30 in 10.0 mi South 11.5 mph - N/A   Clear
10:53 PM 37.0 °F 29.3 °F 27.0 °F 67% 30.30 in 10.0 mi South 11.5 mph - N/A   Clear
11:53 PM 35.1 °F 27.4 °F 26.1 °F 70% 30.27 in 10.0 mi South 10.4 mph - N/A   Clear